SCP
-0 0 0 0 0 0 0 0 0 0 0 0 0 0 0 0 0 0 0 -0 0 -0
-0 -0 -0 0 0 0 0 0 0 0 0 0 0 0 0 0 -0 0 0 -0 -0 0
-0 0 0 0 0 0 0 0 0 0 0 0 0 0 0 0 0 0 0 0 0 0
0 0 0 0 0 0 0 0 0 0 0 0 0 0 0 -0 0 0 0 0 0 0
0 0 0 0 0 0 0 0 0 0 0 0 0 0 0 0 0 0 0 0 0 0
0 0 0 0 0 0 -0 0 0 0 0 0 0 0 0 0 0 0 0 0 0 0
-0 0 0 0 0 0 -0 -0 0 0 0 0 0 0 0 0 0 0 0 0 0 0
0 0 0 0 0 0 0 0 0 0 0 0 0 0 0 0 0 0 0 0 0 0
-0 -0 0 0 0 0 0 0 0 0 0 0 0 0 0 0 0 0 0 0 0 0
-0 0 0 0 0 0 0 0 0 0 0 -0 -0 0 0 0 0 0 0 0 0 0
-0 0 0 1 0 1 0 0 0 0 0 0 0 0 0 0 0 0 0 0 0 0
0 0 1 1 0 0 1 0 0 1 0 0 0 0 0 0 0 0 0 0 0 0
0 0 0 0 0 1 1 1 0 0 0 0 0 0 0 0 0 0 0 0 0 0
0 -0 0 0 0 1 1 1 1 1 0 0 0 0 0 0 0 0 0 0 0 0
Wind_Speed_500mb
48 47 44 41 40 41 41 43 45 51 53 47 34 33 34 37 30 30 30 29 31 23
50 49 47 43 42 44 40 36 27 31 44 40 44 36 40 35 36 33 31 29 28 30
47 47 48 41 38 40 32 27 21 27 36 40 41 42 40 35 29 33 31 27 28 29
48 46 47 30 34 30 27 30 28 30 34 42 39 40 41 35 29 33 27 22 25 25
55 53 38 35 31 21 23 23 33 36 40 43 42 42 41 37 33 38 32 27 28 32
46 50 48 38 32 30 33 16 30 39 43 47 45 45 42 37 35 40 34 31 30 29
39 51 54 44 33 41 34 43 30 42 43 48 50 46 44 43 41 41 38 35 29 33
49 47 50 49 42 41 39 38 48 42 51 46 52 48 45 47 47 45 44 43 40 42
49 45 42 46 51 43 45 42 44 52 50 44 54 51 51 47 49 50 50 48 47 44
35 51 52 47 46 49 49 47 46 52 58 69 57 50 52 51 46 49 52 52 49 48
31 33 43 52 51 49 49 52 52 51 55 61 61 49 53 54 55 47 52 56 54 54
34 35 38 41 53 58 54 53 55 54 54 60 67 59 54 52 50 52 54 53 53 54
35 37 41 45 49 51 56 62 58 59 61 56 57 64 62 56 55 58 60 60 60 59
40 38 43 45 47 44 52 58 65 65 65 62 58 54 60 60 61 61 60 61 62 58
Wind_Direction_500mb
250 252 252 254 254 258 258 267 262 242 239 232 247 231 226 227 226 229 239 235 234 234
252 256 257 258 262 263 269 275 257 224 226 227 236 218 225 226 223 235 234 228 229 228
258 261 263 257 262 267 277 261 226 220 217 223 213 217 224 223 221 231 225 233 230 217
255 268 272 272 264 270 273 245 223 225 222 211 213 219 222 223 224 217 221 230 223 214
264 261 273 274 267 263 254 241 234 229 219 214 217 218 221 222 226 216 224 233 231 228
287 269 268 275 274 261 235 275 237 230 227 220 212 220 228 226 222 222 232 233 241 235
276 281 266 270 269 264 253 240 246 233 228 227 224 229 234 232 229 228 231 228 238 238
280 275 273 263 265 262 257 246 239 240 231 230 228 228 236 232 230 228 231 233 239 241
276 269 272 264 266 265 262 254 241 238 235 226 226 246 237 234 232 230 234 238 244 247
297 274 263 257 255 259 259 257 252 243 236 228 234 240 231 233 236 235 236 241 246 252
330 298 279 263 256 256 257 255 255 252 243 235 231 233 227 235 238 240 241 241 245 252
322 322 312 288 266 255 254 256 249 253 247 238 235 232 229 233 235 238 238 239 242 247
314 314 309 311 296 270 254 251 258 252 251 245 240 237 234 235 242 240 242 245 247 248
291 299 306 304 309 294 261 249 244 248 250 248 245 238 231 231 236 241 244 246 246 247
Wind_Speed_850mb
48 47 44 41 40 41 41 43 45 51 53 47 34 33 34 37 30 30 30 29 31 23
50 49 47 43 42 44 40 36 27 31 44 40 44 36 40 35 36 33 31 29 28 30
47 47 48 41 38 40 32 27 21 27 36 40 41 42 40 35 29 33 31 27 28 29
48 46 47 30 34 30 27 30 28 30 34 42 39 40 41 35 29 33 27 22 25 25
55 53 38 35 31 21 23 23 33 36 40 43 42 42 41 37 33 38 32 27 28 32
46 50 48 38 32 30 33 16 30 39 43 47 45 45 42 37 35 40 34 31 30 29
39 51 54 44 33 41 34 43 30 42 43 48 50 46 44 43 41 41 38 35 29 33
49 47 50 49 42 41 39 38 48 42 51 46 52 48 45 47 47 45 44 43 40 42
49 45 42 46 51 43 45 42 44 52 50 44 54 51 51 47 49 50 50 48 47 44
35 51 52 47 46 49 49 47 46 52 58 69 57 50 52 51 46 49 52 52 49 48
31 33 43 52 51 49 49 52 52 51 55 61 61 49 53 54 55 47 52 56 54 54
34 35 38 41 53 58 54 53 55 54 54 60 67 59 54 52 50 52 54 53 53 54
35 37 41 45 49 51 56 62 58 59 61 56 57 64 62 56 55 58 60 60 60 59
40 38 43 45 47 44 52 58 65 65 65 62 58 54 60 60 61 61 60 61 62 58
Wind_Direction_850mb
250 252 252 254 254 258 258 267 262 242 239 232 247 231 226 227 226 229 239 235 234 234
252 256 257 258 262 263 269 275 257 224 226 227 236 218 225 226 223 235 234 228 229 228
258 261 263 257 262 267 277 261 226 220 217 223 213 217 224 223 221 231 225 233 230 217
255 268 272 272 264 270 273 245 223 225 222 211 213 219 222 223 224 217 221 230 223 214
264 261 273 274 267 263 254 241 234 229 219 214 217 218 221 222 226 216 224 233 231 228
287 269 268 275 274 261 235 275 237 230 227 220 212 220 228 226 222 222 232 233 241 235
276 281 266 270 269 264 253 240 246 233 228 227 224 229 234 232 229 228 231 228 238 238
280 275 273 263 265 262 257 246 239 240 231 230 228 228 236 232 230 228 231 233 239 241
276 269 272 264 266 265 262 254 241 238 235 226 226 246 237 234 232 230 234 238 244 247
297 274 263 257 255 259 259 257 252 243 236 228 234 240 231 233 236 235 236 241 246 252
330 298 279 263 256 256 257 255 255 252 243 235 231 233 227 235 238 240 241 241 245 252
322 322 312 288 266 255 254 256 249 253 247 238 235 232 229 233 235 238 238 239 242 247
314 314 309 311 296 270 254 251 258 252 251 245 240 237 234 235 242 240 242 245 247 248
291 299 306 304 309 294 261 249 244 248 250 248 245 238 231 231 236 241 244 246 246 247